Powrót do katalogu

STARLINK-35496

AktywnyŁącznośćVLEO
NORAD 66114·PAYLOAD·🇺🇸 United States

Wystrzelony Oct 22, 2025 z Vandenberg Space Force Base

Loading…

Następne Przeloty (najbliższe 24 godziny)

TLE

ŚwieżeSource: CelesTrak SupGP

Epoka: Sep 14, 2026, 23:15 UTC

1 66114C 25237A   26257.96923611  .00019534  00000+0  57706-3 0  2572
2 66114  53.1572 237.2997 0001393  96.5054 291.0094 15.34384864    19

Śledź STARLINK-35496 w czasie rzeczywistym z AllMySat

Download on the App Store